Regional Weather Roundup
Issued by NWS

Home | Current Version | Previous Version | Graphics & Text | Print | Product List | Glossary On
Versions: 1 2 3 4 5 6 7 8 9 10 11 12 13 14 15 16 17 18 19 20 21 22 23 24 25 26 27 28 29 30 31 32 33 34 35 36 37 38 39 40 41 42 43 44 45 46 47 48 49 50
000
ASUS43 KBIS 040302
RWRND

NORTH DAKOTA REGIONAL WEATHER ROUNDUP
NATIONAL WEATHER SERVICE BISMARCK ND
1000 PM CDT FRI JUL 03 2015

NOTE: "FAIR" INDICATES FEW OR NO CLOUDS BELOW 12,000 FEET WITH NO
SIGNIFICANT WEATHER AND/OR OBSTRUCTIONS TO VISIBILITY.


NDZ001>003-009>011-017-040400-
NORTHWEST NORTH DAKOTA

CITY           SKY/WX    TMP DP  RH WIND       PRES   REMARKS
WILLISTON      CLEAR     79  62  56 SE8       29.84F
MINOT          PTCLDY    70  64  81 SE3       29.87R HAZE
$$

NDZ018>021-031>035-040>046-040400-
SOUTHWEST NORTH DAKOTA

CITY           SKY/WX    TMP DP  RH WIND       PRES   REMARKS
BISMARCK       CLOUDY    70  64  81 SE5       29.90S HAZE
DICKINSON      PTCLDY    70  64  81 SE9       29.89S HAZE
GARRISON         N/A     71  66  84 SE6       29.88S
HETTINGER ARPT PTCLDY    72  60  66 SE10      29.92S HAZE
$$

NDZ004>008-012>016-024-026-027-054-040400-
NORTHEAST NORTH DAKOTA

CITY           SKY/WX    TMP DP  RH WIND       PRES   REMARKS
GRAND FORKS    CLOUDY    68  62  81 E3        29.89R HAZE
GRND FRKS AFB  PTCLDY    65  62  88 CALM      29.90R
DEVILS LAKE    CLEAR     72  59  64 SE7       29.89S
$$

NDZ022-023-025-028>030-036>039-047>053-040400-
SOUTHEAST NORTH DAKOTA

CITY           SKY/WX    TMP DP  RH WIND       PRES   REMARKS
FARGO          CLEAR     70  61  73 SE3       29.89S HAZE
JAMESTOWN      CLOUDY    72  62  71 SE3       29.90S HAZE
$$



USA.gov is the U.S. government's official web portal to all federal, state and local government web resources and services.